Simultaneous Nadir Overpasses (SNOs) Predictions

Prediction of SNOs between GOES-16 and FY3D Satellite Orbit:

Table of predicted SNOs for the next 14.0 days since TLE Epoch: 3/2/2024
Index Date Time (GOES-16) GOES-16 Lat,Lon FY3D Lat,Lon Distance(km) Time Diff (sec)
1 03/03/2024 07:36:31 -0.06, -75.21 0.56, -77.86 302.83 80
2 03/04/2024 07:15:22 -0.06, -75.21 -0.45, -73.38 208.54 80
3 03/05/2024 19:37:40 0.05, -75.22 -0.78, -78.73 401.88 80
4 03/06/2024 19:21:51 0.05, -75.22 0.24, -74.25 109.97 80
5 03/08/2024 07:44:02 -0.04, -75.23 0.95, -79.58 496.61 80
6 03/09/2024 07:22:53 -0.04, -75.24 -0.07, -75.10 15.42 80
7 03/11/2024 19:26:41 0.03, -75.27 -0.13, -75.98 81.35 80
8 03/12/2024 19:10:52 0.04, -75.28 0.89, -71.50 431.40 80
9 03/14/2024 07:33:03 -0.03, -75.30 0.29, -76.83 173.71 80
10 03/15/2024 07:11:53 -0.03, -75.32 -0.68, -72.34 339.14 80
